Regional Weather Roundup
Issued by NWS

Home | Current Version | Previous Version | Text Only | Print | Product List | Glossary On
Versions: 1 2 3 4 5 6 7 8 9 10 11 12 13 14 15 16 17 18 19 20 21 22 23 24 25 26 27 28 29 30 31 32 33 34 35 36 37 38 39 40 41 42 43 44 45 46 47 48 49 50
584
ASUS44 KFWD 021110
RWRTX
NORTH TEXAS HOURLY WEATHER ROUNDUP
NATIONAL WEATHER SERVICE FORT WORTH TX
600 AM CDT MON MAY 02 2016

NOTE: "FAIR" INDICATES FEW OR NO CLOUDS BELOW 12,000 FEET WITH NO
SIGNIFICANT WEATHER AND/OR OBSTRUCTIONS TO VISIBILITY.

TXZ118-119-021200-
DALLAS/FORT WORTH METROPLEX

CITY           SKY/WX    TMP DP  RH WIND       PRES   REMARKS
DFW AIRPORT    LGT RAIN  55  51  86 NW14      30.11R
DALLAS LOVE    TSTM      55  53  93 NW9       30.11R
FTW MEACHAM    TSTM      54  51  90 N9        30.11F
DAL-EXECUTIVE  TSTM      54  52  93 N15       30.08R FOG
FTW-ALLIANCE   RAIN      53  51  93 NW9       30.12S FOG
FTW-NAS-JRB    TSTM      55  51  86 N12       30.13R
FTW-SPINKS     TSTM      53  51  94 N9        30.13S
ARLINGTON      HVY RAIN  57  52  83 NW16G23   30.11R
GRAND PRAIRIE  CLOUDY    54  54 100 NW8       30.12R
ADDISON          N/A     54  50  87 MISG      30.12R
MESQUITE       CLOUDY    55  53  94 NW16G22   30.09S
LANCASTER      CLOUDY    56  51  84 N15       30.07F
$$

TXZ091>094-102>105-117-120-121-131>134-021200-
NORTH CENTRAL TEXAS

CITY           SKY/WX    TMP DP  RH WIND       PRES   REMARKS
SHRMAN/DENISON CLOUDY    50  45  83 NW9       30.11R
GAINESVILLE    CLOUDY    51  48  89 N8        30.13F
BOWIE          CLOUDY    49  47  91 NW5       30.13F
BRIDGEPORT     LGT RAIN  52  50  92 N8        30.15F
DECATUR        CLOUDY    51  50  97 NW6       30.13S
DENTON         RAIN      52  50  93 NW9       30.11S
MCKINNEY       RAIN      53  53 100 N14       30.09F FOG
GREENVILLE     TSTM      55  50  82 W10G21    30.09R
ROCKWALL       TSTM      55  54  99 N9        30.08F
TERRELL        CLOUDY    58  52  80 NW9G18    30.08R
WAXAHACHIE     CLOUDY    55  54  94 NW15G21   30.10R
CLEBURNE       RAIN      54  54 100 N18G25    30.09F
GRANBURY       TSTM      54  51  92 NW10      30.13F
$$

TXZ083>090-098>101-113>116-127>130-139>142-154-155-021200-
WESTERN NORTH TEXAS

CITY           SKY/WX    TMP DP  RH WIND       PRES   REMARKS
WICHITA FALLS  CLOUDY    47  44  90 NW8       30.15S
WF-KICKAPOO    CLOUDY    51  45  79 NW7       30.19R
VERNON         CLOUDY    49  40  71 NW8       30.18S
ABILENE        CLOUDY    49  45  86 N10       30.20R
BRECKENRIDGE   CLOUDY    52  50  93 N5        30.15F
GRAHAM         CLOUDY    50  47  89 NW5       30.16R
MINERAL WELLS  LGT RAIN  51  49  92 NW8       30.14R
STEPHENVILLE   CLOUDY    50  48  90 N15G23    30.14R
COMANCHE       TSTM      50  50 100 N12       30.14S
COLEMAN        TSTM      50  47  90 N8        30.18R
$$

TXZ143>147-156>162-174-175-021200-
CENTRAL TEXAS

CITY           SKY/WX    TMP DP  RH WIND       PRES   REMARKS
WACO           CLOUDY    59  51  75 N21       30.07R
WACO-MCGREGOR  CLOUDY    59  52  77 N13G21    30.07
HILLSBORO      CLOUDY    56  51  81 NW14G26   30.10R
CORSICANA      CLOUDY    62  51  67 N20G26    30.06R
MEXIA          RAIN      58  51  78 N10G20    30.04R
HEARNE         CLOUDY    62  52  68 N10G20    30.02R
CAMERON        CLOUDY    63  53  71 N8        30.03R
TEMPLE         CLOUDY    59  51  75 N18G24    30.05R
KILLEEN        NOT AVBL
KILLEEN-SKYLRK CLOUDY    58  51  78 N17       30.06R
GATESVILLE     CLOUDY    57  50  77 MISG      30.10S
HAMILTON       CLOUDY    55  49  82 N14G23    30.11R
LAMPASAS       CLOUDY    56  51  83 N16G23    30.09R
$$

TXZ095>097-106>112-122>126-135>138-148>153-164>167-021200-
EAST TEXAS

CITY           SKY/WX    TMP DP  RH WIND       PRES   REMARKS
PARIS          MOCLDY    55  46  71 N13       30.02R
SULPHUR SPRNGS CLOUDY    59  54  83 NW12      30.06R
MOUNT PLEASANT CLOUDY    61  49  65 N5        30.02R
MINEOLA        CLOUDY    63  52  67 N5        30.02R
TYLER          CLOUDY    62  49  62 N7        30.00R
LONGVIEW       CLOUDY    58  53  84 N6        29.97F
MARSHALL       CLOUDY    59  53  82 N3        30.01R
ATHENS         CLOUDY    61  48  63 NW9       30.02R
PALESTINE      CLOUDY    61  53  75 N3        30.00S
JACKSONVILLE   CLOUDY    58  55  90 N3        30.01R
HENDERSON      CLOUDY    59  54  83 N3        29.99S
CENTER         CLOUDY    65  62  90 N7        29.96F
NACOGDOCHES    CLOUDY    63  55  77 N5        29.96S
LUFKIN         LGT RAIN  63  60  90 N7        29.95S
$$

SUPPLEMENTAL OBSERVATIONS (CENTRAL)

CITY           SKY/WX    TMP DP  RH WIND       PRES   REMARKS
CADDO GRASSLND   N/A     54  50  87 NW5         N/A
PAT MAYSE LAKE   N/A     54  52  94 NW9         N/A
GREENVILLE       N/A     55  52  88 NW14G22     N/A
CEDAR HILL       N/A     54  52  94 N7G18       N/A
MCGREGOR         N/A     57  50  77 N10G21      N/A
TEMPLE           N/A     61  52  72 N3G12       N/A
$$

SUPPLEMENTAL OBSERVATIONS (WEST)

CITY           SKY/WX    TMP DP  RH WIND       PRES   REMARKS
MILLERS CREEK    N/A     48  43  81 N6          N/A
LBJ GRASSLAND    N/A     52  48  87 N6          N/A
GRANBURY         N/A     52  46  82 N12         N/A
HAMBY            N/A     48  45  87 N5          N/A
IVIE RESERVOIR   N/A     52  46  82 N13G21      N/A
COLORADO BEND    N/A     55  48  76 NE9G17      N/A
$$

SUPPLEMENTAL OBSERVATIONS (EAST)

CITY           SKY/WX    TMP DP  RH WIND       PRES   REMARKS
CLARKSVILLE      N/A     57  54  88 NW5         N/A
TEXARKANA        N/A     59  55  88 NE5         N/A
LINDEN           N/A     61  52  72 NE1         N/A
GILMER           N/A     63  50  63 N7          N/A
HENDERSON        N/A     59  54  82 N5          N/A
LUFKIN           N/A     63  57  82 MISG        N/A
S SABINE NF      N/A     68  66  94 NE3         N/A
$$

SUPPLEMENTAL OBSERVATIONS ARE A COLLECTION OF AUTOMATED INSTRUMENTS
THAT ARE MAINTAINED BY A VARIETY OF FEDERAL AND STATE AGENCIES.
CERTAIN ELEMENTS...SUCH AS HUMIDITY VALUES AND SUSTAINED WIND
SPEEDS...MAY BE APPROXIMATED.





USA.gov is the U.S. government's official web portal to all federal, state and local government web resources and services.